Ana Sayfa
METAR-TAF:

METAR-TAF

Havaalanları :

Draughon-Miller Central Texas Regional Airport

Temple, Teksas, Amerika Birleşik Devletleri

Enlem: 31-09N, Boylam: 097-24W, yükseklik: 208 m

Güncel hava durumu gözlemi

Rapor saat 23:51 UTC de 12 dakika önce yapıldı.
Rüzgar kuzey/kuzeydoğudan 4 kt
Sıcaklık 18°C
Nem 56%
Basınç 1015 hPa
Görüş mesafesi: 16.1 km
Açık gökyüzü

METAR: KTPL 262351Z AUTO 02004KT 10SM CLR 18/09 A2997 RMK AO2 SLPNO T01780094 10228 20178 53004

Saat: 18:03 (00:03 UTC)


TAF: eksik

4.000'den fazla havaalanı için hava durumu gözlemleri ve tahminleri (METAR ve TAF raporları).

Kullanılabilir istasyonlar harita üzerinde sarı ve kırmızı noktalarla gösterilir.

İstasyonun adını görmek için fareyi noktanın üzerinde gezdirin.

Sonrasında hava gözlem ve tahminlerini görmek için tıklayın.

Haritayı değiştirmek için: yaklaştırmak için siyah artı işaretli yeşil düğmeye ve uzaklaştırmak için de eksi işaretli düğmeye hızla tıklayın; bitişik haritalar için yeşil okları kullanın.


METAR-TAF: